Year,Month,Day,Hour,Minute,Value (Times are PST for temperature in C)
2019,03,21,00,00,11.60
2019,03,21,00,01,11.60
2019,03,21,00,02,11.60
2019,03,21,00,03,11.60
2019,03,21,00,04,11.50
2019,03,21,00,05,11.40
2019,03,21,00,06,11.40
2019,03,21,00,07,11.30
2019,03,21,00,08,11.30
2019,03,21,00,09,11.20
2019,03,21,00,10,11.20
2019,03,21,00,11,11.20
2019,03,21,00,12,11.20
2019,03,21,00,13,11.20
2019,03,21,00,14,11.10
2019,03,21,00,15,11.10
2019,03,21,00,16,11.10
2019,03,21,00,17,11.00
2019,03,21,00,18,11.00
2019,03,21,00,19,10.90
2019,03,21,00,20,10.80
2019,03,21,00,21,10.80
2019,03,21,00,22,10.70
2019,03,21,00,23,10.70
2019,03,21,00,24,10.70
2019,03,21,00,25,10.60
2019,03,21,00,26,10.60
2019,03,21,00,27,10.50
2019,03,21,00,28,10.50
2019,03,21,00,29,10.50
2019,03,21,00,30,10.40
2019,03,21,00,31,10.40
2019,03,21,00,32,10.30
2019,03,21,00,33,10.20
2019,03,21,00,34,10.20
2019,03,21,00,35,10.10
2019,03,21,00,36,10.00
2019,03,21,00,37,10.00
2019,03,21,00,38,9.90
2019,03,21,00,39,9.90
2019,03,21,00,40,9.90
2019,03,21,00,41,9.90
2019,03,21,00,42,9.90
2019,03,21,00,43,9.90
2019,03,21,00,44,9.90
2019,03,21,00,45,10.00
2019,03,21,00,46,10.00
2019,03,21,00,47,10.00
2019,03,21,00,48,10.10
2019,03,21,00,49,10.10
2019,03,21,00,50,10.10
2019,03,21,00,51,10.10
2019,03,21,00,52,10.10
2019,03,21,00,53,10.10
2019,03,21,00,54,10.10
2019,03,21,00,55,10.20
2019,03,21,00,56,10.20
2019,03,21,00,57,10.30
2019,03,21,00,58,10.30
2019,03,21,00,59,10.30
2019,03,21,01,00,10.40
2019,03,21,01,01,10.40
2019,03,21,01,02,10.50
2019,03,21,01,03,10.60
2019,03,21,01,04,10.60
2019,03,21,01,05,10.60
2019,03,21,01,06,10.60
2019,03,21,01,07,10.60
2019,03,21,01,08,10.60
2019,03,21,01,09,10.60
2019,03,21,01,10,10.70
2019,03,21,01,11,10.70
2019,03,21,01,12,10.70
2019,03,21,01,13,10.70
2019,03,21,01,14,10.70
2019,03,21,01,15,10.70
2019,03,21,01,16,10.70
2019,03,21,01,17,10.70
2019,03,21,01,18,10.70
2019,03,21,01,19,10.70
2019,03,21,01,20,10.70
2019,03,21,01,21,10.70
2019,03,21,01,22,10.70
2019,03,21,01,23,10.70
2019,03,21,01,24,10.80
2019,03,21,01,25,10.80
2019,03,21,01,26,10.80
2019,03,21,01,27,10.80
2019,03,21,01,28,10.80
2019,03,21,01,29,10.90
2019,03,21,01,30,10.90
2019,03,21,01,31,10.90
2019,03,21,01,32,10.90
2019,03,21,01,33,10.80
2019,03,21,01,34,10.80
2019,03,21,01,35,10.70
2019,03,21,01,36,10.70
2019,03,21,01,37,10.70
2019,03,21,01,38,10.60
2019,03,21,01,39,10.60
2019,03,21,01,40,10.50
2019,03,21,01,41,10.40
2019,03,21,01,42,10.30
2019,03,21,01,43,10.30
2019,03,21,01,44,10.20
2019,03,21,01,45,10.20
2019,03,21,01,46,10.20
2019,03,21,01,47,10.10
2019,03,21,01,48,10.10
2019,03,21,01,49,10.10
2019,03,21,01,50,10.10
2019,03,21,01,51,10.00
2019,03,21,01,52,10.00
2019,03,21,01,53,10.00
2019,03,21,01,54,9.90
2019,03,21,01,55,9.90
2019,03,21,01,56,9.90
2019,03,21,01,57,9.90
2019,03,21,01,58,9.90
2019,03,21,01,59,9.80
2019,03,21,02,00,9.80
2019,03,21,02,01,9.80
2019,03,21,02,02,9.80
2019,03,21,02,03,9.70
2019,03,21,02,04,9.70
2019,03,21,02,05,9.60
2019,03,21,02,06,9.60
2019,03,21,02,07,9.60
2019,03,21,02,08,9.50
2019,03,21,02,09,9.50
2019,03,21,02,10,9.40
2019,03,21,02,11,9.40
2019,03,21,02,12,9.40
2019,03,21,02,13,9.30
2019,03,21,02,14,9.30
2019,03,21,02,15,9.30
2019,03,21,02,16,9.30
2019,03,21,02,17,9.20
2019,03,21,02,18,9.20
2019,03,21,02,19,9.20
2019,03,21,02,20,9.10
2019,03,21,02,21,9.10
2019,03,21,02,22,9.10
2019,03,21,02,23,9.10
2019,03,21,02,24,9.00
2019,03,21,02,25,9.00
2019,03,21,02,26,8.90
2019,03,21,02,27,8.90
2019,03,21,02,28,8.90
2019,03,21,02,29,8.90
2019,03,21,02,30,8.80
2019,03,21,02,31,8.80
2019,03,21,02,32,8.80
2019,03,21,02,33,8.80
2019,03,21,02,34,8.80
2019,03,21,02,35,8.70
2019,03,21,02,36,8.70
2019,03,21,02,37,8.70
2019,03,21,02,38,8.70
2019,03,21,02,39,8.70
2019,03,21,02,40,8.70
2019,03,21,02,41,8.70
2019,03,21,02,42,8.70
2019,03,21,02,43,8.70
2019,03,21,02,44,8.70
2019,03,21,02,45,8.70
2019,03,21,02,46,8.70
2019,03,21,02,47,8.70
2019,03,21,02,48,8.60
2019,03,21,02,49,8.60
2019,03,21,02,50,8.60
2019,03,21,02,51,8.60
2019,03,21,02,52,8.60
2019,03,21,02,53,8.60
2019,03,21,02,54,8.60
2019,03,21,02,55,8.60
2019,03,21,02,56,8.60
2019,03,21,02,57,8.60
2019,03,21,02,58,8.60
2019,03,21,02,59,8.60
2019,03,21,03,00,8.70
2019,03,21,03,01,8.70
2019,03,21,03,02,8.70
2019,03,21,03,03,8.70
2019,03,21,03,04,8.70
2019,03,21,03,05,8.70
2019,03,21,03,06,8.70
2019,03,21,03,07,8.70
2019,03,21,03,08,8.70
2019,03,21,03,09,8.70
2019,03,21,03,10,8.70
2019,03,21,03,11,8.70
2019,03,21,03,12,8.70
2019,03,21,03,13,8.70
2019,03,21,03,14,8.70
2019,03,21,03,15,8.70
2019,03,21,03,16,8.70
2019,03,21,03,17,8.70
2019,03,21,03,18,8.70
2019,03,21,03,19,8.70
2019,03,21,03,20,8.70
2019,03,21,03,21,8.70
2019,03,21,03,22,8.70
2019,03,21,03,23,8.70
2019,03,21,03,24,8.70
2019,03,21,03,25,8.70
2019,03,21,03,26,8.70
2019,03,21,03,27,8.70
2019,03,21,03,28,8.70
2019,03,21,03,29,8.70
2019,03,21,03,30,8.70
2019,03,21,03,31,8.70
2019,03,21,03,32,8.70
2019,03,21,03,33,8.70
2019,03,21,03,34,8.70
2019,03,21,03,35,8.70
2019,03,21,03,36,8.70
2019,03,21,03,37,8.70
2019,03,21,03,38,8.70
2019,03,21,03,39,8.70
2019,03,21,03,40,8.70
2019,03,21,03,41,8.70
2019,03,21,03,42,8.70
2019,03,21,03,43,8.70
2019,03,21,03,44,8.70
2019,03,21,03,45,8.70
2019,03,21,03,46,8.70
2019,03,21,03,47,8.70
2019,03,21,03,48,8.80
2019,03,21,03,49,8.80
2019,03,21,03,50,8.80
2019,03,21,03,51,8.80
2019,03,21,03,52,8.90
2019,03,21,03,53,9.00
2019,03,21,03,54,9.00
2019,03,21,03,55,9.00
2019,03,21,03,56,9.00
2019,03,21,03,57,9.00
2019,03,21,03,58,9.10
2019,03,21,03,59,9.10
2019,03,21,04,00,9.10
2019,03,21,04,01,9.10
2019,03,21,04,02,9.10
2019,03,21,04,03,9.10
2019,03,21,04,04,9.10
2019,03,21,04,05,9.10
2019,03,21,04,06,9.10
2019,03,21,04,07,9.10
2019,03,21,04,08,9.10
2019,03,21,04,09,9.10
2019,03,21,04,10,9.10
2019,03,21,04,11,9.10
2019,03,21,04,12,9.10
2019,03,21,04,13,9.10
2019,03,21,04,14,9.10
2019,03,21,04,15,9.10
2019,03,21,04,16,9.10
2019,03,21,04,17,9.10
2019,03,21,04,18,9.10
2019,03,21,04,19,9.10
2019,03,21,04,20,9.10
2019,03,21,04,21,9.10
2019,03,21,04,22,9.10
2019,03,21,04,23,9.10
2019,03,21,04,24,9.10
2019,03,21,04,25,9.10
2019,03,21,04,26,9.10
2019,03,21,04,27,9.10
2019,03,21,04,28,9.10
2019,03,21,04,29,9.10
2019,03,21,04,30,9.10
2019,03,21,04,31,9.10
2019,03,21,04,32,9.10
2019,03,21,04,33,9.10
2019,03,21,04,34,9.10
2019,03,21,04,35,9.10
2019,03,21,04,36,9.10
2019,03,21,04,37,9.10
2019,03,21,04,38,9.00
2019,03,21,04,39,9.00
2019,03,21,04,40,9.00
2019,03,21,04,41,9.00
2019,03,21,04,42,9.10
2019,03,21,04,43,9.10
2019,03,21,04,44,9.00
2019,03,21,04,45,9.00
2019,03,21,04,46,9.00
2019,03,21,04,47,9.00
2019,03,21,04,48,9.00
2019,03,21,04,49,8.90
2019,03,21,04,50,8.90
2019,03,21,04,51,8.90
2019,03,21,04,52,8.80
2019,03,21,04,53,8.80
2019,03,21,04,54,8.80
2019,03,21,04,55,8.80
2019,03,21,04,56,8.70
2019,03,21,04,57,8.70
2019,03,21,04,58,8.70
2019,03,21,04,59,8.70
2019,03,21,05,00,8.70
2019,03,21,05,01,8.70
2019,03,21,05,02,8.70
2019,03,21,05,03,8.70
2019,03,21,05,04,8.70
2019,03,21,05,05,8.60
2019,03,21,05,06,8.60
2019,03,21,05,07,8.60
2019,03,21,05,08,8.60
2019,03,21,05,09,8.60
2019,03,21,05,10,8.50
2019,03,21,05,11,8.50
2019,03,21,05,12,8.50
2019,03,21,05,13,8.50
2019,03,21,05,14,8.40
2019,03,21,05,15,8.40
2019,03,21,05,16,8.40
2019,03,21,05,17,8.40
2019,03,21,05,18,8.40
2019,03,21,05,19,8.40
2019,03,21,05,20,8.40
2019,03,21,05,21,8.40
2019,03,21,05,22,8.40
2019,03,21,05,23,8.40
2019,03,21,05,24,8.40
2019,03,21,05,25,8.40
2019,03,21,05,26,8.40
2019,03,21,05,27,8.40
2019,03,21,05,28,8.30
2019,03,21,05,29,8.30
2019,03,21,05,30,8.30
2019,03,21,05,31,8.30
2019,03,21,05,32,8.30
2019,03,21,05,33,8.30
2019,03,21,05,34,8.20
2019,03,21,05,35,8.20
2019,03,21,05,36,8.10
2019,03,21,05,37,8.10
2019,03,21,05,38,8.00
2019,03,21,05,39,7.90
2019,03,21,05,40,7.80
2019,03,21,05,41,7.80
2019,03,21,05,42,7.80
2019,03,21,05,43,7.70
2019,03,21,05,44,7.70
2019,03,21,05,45,7.70
2019,03,21,05,46,7.70
2019,03,21,05,47,7.70
2019,03,21,05,48,7.60
2019,03,21,05,49,7.60
2019,03,21,05,50,7.60
2019,03,21,05,51,7.60
2019,03,21,05,52,7.50
2019,03,21,05,53,7.50
2019,03,21,05,54,7.50
2019,03,21,05,55,7.50
2019,03,21,05,56,7.50
2019,03,21,05,57,7.50
2019,03,21,05,58,7.50
2019,03,21,05,59,7.50
2019,03,21,06,00,7.40
2019,03,21,06,01,7.50
2019,03,21,06,02,7.50
2019,03,21,06,03,7.50
2019,03,21,06,04,7.50
2019,03,21,06,05,7.50
2019,03,21,06,06,7.50
2019,03,21,06,07,7.50
2019,03,21,06,08,7.60
2019,03,21,06,09,7.60
2019,03,21,06,10,7.60
2019,03,21,06,11,7.70
2019,03,21,06,12,7.70
2019,03,21,06,13,7.70
2019,03,21,06,14,7.70
2019,03,21,06,15,7.70
2019,03,21,06,16,7.70
2019,03,21,06,17,7.70
2019,03,21,06,18,7.60
2019,03,21,06,19,7.60
2019,03,21,06,20,7.60
2019,03,21,06,21,7.50
2019,03,21,06,22,7.50
2019,03,21,06,23,7.50
2019,03,21,06,24,7.50
2019,03,21,06,25,7.50
2019,03,21,06,26,7.50
2019,03,21,06,27,7.50
2019,03,21,06,28,7.40
2019,03,21,06,29,7.40
2019,03,21,06,30,7.40
2019,03,21,06,31,7.40
2019,03,21,06,32,7.40
2019,03,21,06,33,7.30
2019,03,21,06,34,7.30
2019,03,21,06,35,7.30
2019,03,21,06,36,7.30
2019,03,21,06,37,7.30
2019,03,21,06,38,7.30
2019,03,21,06,39,7.30
2019,03,21,06,40,7.30
2019,03,21,06,41,7.30
2019,03,21,06,42,7.30
2019,03,21,06,43,7.30
2019,03,21,06,44,7.30
2019,03,21,06,45,7.30
2019,03,21,06,46,7.30
2019,03,21,06,47,7.30
2019,03,21,06,48,7.30
2019,03,21,06,49,7.30
2019,03,21,06,50,7.30
2019,03,21,06,51,7.30
2019,03,21,06,52,7.30
2019,03,21,06,53,7.30
2019,03,21,06,54,7.30
2019,03,21,06,55,7.30
2019,03,21,06,56,7.30
2019,03,21,06,57,7.30
2019,03,21,06,58,7.30
2019,03,21,06,59,7.30
2019,03,21,07,00,7.30
2019,03,21,07,01,7.30
2019,03,21,07,02,7.30
2019,03,21,07,03,7.30
2019,03,21,07,04,7.30
2019,03,21,07,05,7.30
2019,03,21,07,06,7.30
2019,03,21,07,07,7.30
2019,03,21,07,08,7.30
2019,03,21,07,09,7.30
2019,03,21,07,10,7.30
2019,03,21,07,11,7.30
2019,03,21,07,12,7.30
2019,03,21,07,13,7.30
2019,03,21,07,14,7.40
2019,03,21,07,15,7.40
2019,03,21,07,16,7.40
2019,03,21,07,17,7.40
2019,03,21,07,18,7.40
2019,03,21,07,19,7.40
2019,03,21,07,20,7.50
2019,03,21,07,21,7.50
2019,03,21,07,22,7.60
2019,03,21,07,23,7.60
2019,03,21,07,24,7.70
2019,03,21,07,25,7.70
2019,03,21,07,26,7.80
2019,03,21,07,27,7.90
2019,03,21,07,28,7.90
2019,03,21,07,29,8.00
2019,03,21,07,30,8.00
2019,03,21,07,31,8.10
2019,03,21,07,32,8.10
2019,03,21,07,33,8.20
2019,03,21,07,34,8.20
2019,03,21,07,35,8.30
2019,03,21,07,36,8.40
2019,03,21,07,37,8.50
2019,03,21,07,38,8.50
2019,03,21,07,39,8.60
2019,03,21,07,40,8.70
2019,03,21,07,41,8.70
2019,03,21,07,42,8.70
2019,03,21,07,43,8.80
2019,03,21,07,44,8.80
2019,03,21,07,45,8.80
2019,03,21,07,46,8.90
2019,03,21,07,47,8.90
2019,03,21,07,48,8.90
2019,03,21,07,49,8.90
2019,03,21,07,50,9.00
2019,03,21,07,51,9.00
2019,03,21,07,52,9.10
2019,03,21,07,53,9.10
2019,03,21,07,54,9.10
2019,03,21,07,55,9.10
2019,03,21,07,56,9.10
2019,03,21,07,57,9.10
2019,03,21,07,58,9.10
2019,03,21,07,59,9.10
2019,03,21,08,00,9.20
2019,03,21,08,01,9.20
2019,03,21,08,02,9.20
2019,03,21,08,03,9.20
2019,03,21,08,04,9.20
2019,03,21,08,05,9.20
2019,03,21,08,06,9.30
2019,03,21,08,07,9.30
2019,03,21,08,08,9.30
2019,03,21,08,09,9.30
2019,03,21,08,10,9.40
2019,03,21,08,11,9.40
2019,03,21,08,12,9.40
2019,03,21,08,13,9.40
2019,03,21,08,14,9.40
2019,03,21,08,15,9.40
2019,03,21,08,16,9.50
2019,03,21,08,17,9.50
2019,03,21,08,18,9.50
2019,03,21,08,19,9.50
2019,03,21,08,20,9.50
2019,03,21,08,21,9.60
2019,03,21,08,22,9.60
2019,03,21,08,23,9.60
2019,03,21,08,24,9.60
2019,03,21,08,25,9.60
2019,03,21,08,26,9.60
2019,03,21,08,27,9.70
2019,03,21,08,28,9.70
2019,03,21,08,29,9.70
2019,03,21,08,30,9.70
2019,03,21,08,31,9.70
2019,03,21,08,32,9.80
2019,03,21,08,33,9.80
2019,03,21,08,34,9.80
2019,03,21,08,35,9.80
2019,03,21,08,36,9.80
2019,03,21,08,37,9.80
2019,03,21,08,38,9.80
2019,03,21,08,39,9.80
2019,03,21,08,40,9.90
2019,03,21,08,41,9.90
2019,03,21,08,42,9.90
2019,03,21,08,43,9.90
2019,03,21,08,44,9.90
2019,03,21,08,45,10.00
2019,03,21,08,46,10.00
2019,03,21,08,47,10.00
2019,03,21,08,48,10.10
2019,03,21,08,49,10.10
2019,03,21,08,50,10.10
2019,03,21,08,51,10.10
2019,03,21,08,52,10.20
2019,03,21,08,53,10.20
2019,03,21,08,54,10.20
2019,03,21,08,55,10.20
2019,03,21,08,56,10.20
2019,03,21,08,57,10.20
2019,03,21,08,58,10.30
2019,03,21,08,59,10.30
2019,03,21,09,00,10.30
2019,03,21,09,01,10.30
2019,03,21,09,02,10.30
2019,03,21,09,03,10.30
2019,03,21,09,04,10.30
2019,03,21,09,05,10.30
2019,03,21,09,06,10.30
2019,03,21,09,07,10.30
2019,03,21,09,08,10.30
2019,03,21,09,09,10.30
2019,03,21,09,10,10.30
2019,03,21,09,11,10.30
2019,03,21,09,12,10.30
2019,03,21,09,13,10.30
2019,03,21,09,14,10.30
2019,03,21,09,15,10.30
2019,03,21,09,16,10.30
2019,03,21,09,17,10.30
2019,03,21,09,18,10.30
2019,03,21,09,19,10.30
2019,03,21,09,20,10.30
2019,03,21,09,21,10.30
2019,03,21,09,22,10.30
2019,03,21,09,23,10.30
2019,03,21,09,24,10.30
2019,03,21,09,25,10.30
2019,03,21,09,26,10.40
2019,03,21,09,27,10.40
2019,03,21,09,28,10.40
2019,03,21,09,29,10.40
2019,03,21,09,30,10.50
2019,03,21,09,31,10.50
2019,03,21,09,32,10.60
2019,03,21,09,33,10.60
2019,03,21,09,34,10.60
2019,03,21,09,35,10.60
2019,03,21,09,36,10.70
2019,03,21,09,37,10.70
2019,03,21,09,38,10.70
2019,03,21,09,39,10.80
2019,03,21,09,40,10.80
2019,03,21,09,41,10.90
2019,03,21,09,42,10.90
2019,03,21,09,43,10.90
2019,03,21,09,44,11.00
2019,03,21,09,45,11.00
2019,03,21,09,46,11.10
2019,03,21,09,47,11.20
2019,03,21,09,48,11.20
2019,03,21,09,49,11.30
2019,03,21,09,50,11.30
2019,03,21,09,51,11.40
2019,03,21,09,52,11.50
2019,03,21,09,53,11.50
2019,03,21,09,54,11.60
2019,03,21,09,55,11.60
2019,03,21,09,56,11.70
2019,03,21,09,57,11.70
2019,03,21,09,58,11.80
2019,03,21,09,59,11.80
2019,03,21,10,00,11.90
2019,03,21,10,01,11.90
2019,03,21,10,02,12.00
2019,03,21,10,03,12.00
2019,03,21,10,04,12.10
2019,03,21,10,05,12.10
2019,03,21,10,06,12.10
2019,03,21,10,07,12.10
2019,03,21,10,08,12.20
2019,03,21,10,09,12.20
2019,03,21,10,10,12.20
2019,03,21,10,11,12.20
2019,03,21,10,12,12.30
2019,03,21,10,13,12.30
2019,03,21,10,14,12.30
2019,03,21,10,15,12.30
2019,03,21,10,16,12.30
2019,03,21,10,17,12.30
2019,03,21,10,18,12.30
2019,03,21,10,19,12.30
2019,03,21,10,20,12.30
2019,03,21,10,21,12.30
2019,03,21,10,22,12.30
2019,03,21,10,23,12.30
2019,03,21,10,24,12.30
2019,03,21,10,25,12.30
2019,03,21,10,26,12.30
2019,03,21,10,27,12.20
2019,03,21,10,28,12.20
2019,03,21,10,29,12.20
2019,03,21,10,30,12.10
2019,03,21,10,31,12.10
2019,03,21,10,32,12.10
2019,03,21,10,33,12.10
2019,03,21,10,34,12.20
2019,03,21,10,35,12.20
2019,03,21,10,36,12.20
2019,03,21,10,37,12.20
2019,03,21,10,38,12.20
2019,03,21,10,39,12.20
2019,03,21,10,40,12.20
2019,03,21,10,41,12.30
2019,03,21,10,42,12.30
2019,03,21,10,43,12.30
2019,03,21,10,44,12.30
2019,03,21,10,45,12.40
2019,03,21,10,46,12.40
2019,03,21,10,47,12.40
2019,03,21,10,48,12.50
2019,03,21,10,49,12.50
2019,03,21,10,50,12.60
2019,03,21,10,51,12.60
2019,03,21,10,52,12.60
2019,03,21,10,53,12.60
2019,03,21,10,54,12.60
2019,03,21,10,55,12.70
2019,03,21,10,56,12.70
2019,03,21,10,57,12.70
2019,03,21,10,58,12.80
2019,03,21,10,59,12.80
2019,03,21,11,00,12.90
2019,03,21,11,01,12.90
2019,03,21,11,02,13.00
2019,03,21,11,03,13.00
2019,03,21,11,04,13.10
2019,03,21,11,05,13.20
2019,03,21,11,06,13.20
2019,03,21,11,07,13.30
2019,03,21,11,08,13.30
2019,03,21,11,09,13.40
2019,03,21,11,10,13.40
2019,03,21,11,11,13.40
2019,03,21,11,12,13.50
2019,03,21,11,13,13.50
2019,03,21,11,14,13.60
2019,03,21,11,15,13.60
2019,03,21,11,16,13.70
2019,03,21,11,17,13.70
2019,03,21,11,18,13.80
2019,03,21,11,19,13.90
2019,03,21,11,20,13.90
2019,03,21,11,21,13.90
2019,03,21,11,22,13.90
2019,03,21,11,23,13.90
2019,03,21,11,24,14.00
2019,03,21,11,25,14.00
2019,03,21,11,26,14.00
2019,03,21,11,27,14.00
2019,03,21,11,28,14.10
2019,03,21,11,29,14.10
2019,03,21,11,30,14.10
2019,03,21,11,31,14.20
2019,03,21,11,32,14.20
2019,03,21,11,33,14.20
2019,03,21,11,34,14.20
2019,03,21,11,35,14.20
2019,03,21,11,36,14.20
2019,03,21,11,37,14.20
2019,03,21,11,38,14.10
2019,03,21,11,39,14.10
2019,03,21,11,40,14.10
2019,03,21,11,41,14.10
2019,03,21,11,42,14.20
2019,03,21,11,43,14.20
2019,03,21,11,44,14.20
2019,03,21,11,45,14.20
2019,03,21,11,46,14.30
2019,03,21,11,47,14.30
2019,03,21,11,48,14.30
2019,03,21,11,49,14.30
2019,03,21,11,50,14.20
2019,03,21,11,51,14.20
2019,03,21,11,52,14.10
2019,03,21,11,53,14.10
2019,03,21,11,54,14.10
2019,03,21,11,55,14.00
2019,03,21,11,56,14.00
2019,03,21,11,57,14.00
2019,03,21,11,58,14.10
2019,03,21,11,59,14.10
2019,03,21,12,00,14.20
2019,03,21,12,01,14.20
2019,03,21,12,02,14.30
2019,03,21,12,03,14.30
2019,03,21,12,04,14.40
2019,03,21,12,05,14.40
2019,03,21,12,06,14.50
2019,03,21,12,07,14.60
2019,03,21,12,08,14.60
2019,03,21,12,09,14.60
2019,03,21,12,10,14.60
2019,03,21,12,11,14.70
2019,03,21,12,12,14.70
2019,03,21,12,13,14.70
2019,03,21,12,14,14.70
2019,03,21,12,15,14.70
2019,03,21,12,16,14.70
2019,03,21,12,17,14.70
2019,03,21,12,18,14.70
2019,03,21,12,19,14.70
2019,03,21,12,20,14.80
2019,03,21,12,21,14.80
2019,03,21,12,22,14.80
2019,03,21,12,23,14.90
2019,03,21,12,24,14.90
2019,03,21,12,25,15.00
2019,03,21,12,26,15.00
2019,03,21,12,27,15.10
2019,03,21,12,28,15.10
2019,03,21,12,29,15.20
2019,03,21,12,30,15.20
2019,03,21,12,31,15.20
2019,03,21,12,32,15.30
2019,03,21,12,33,15.30
2019,03,21,12,34,15.30
2019,03,21,12,35,15.30
2019,03,21,12,36,15.30
2019,03,21,12,37,15.30
2019,03,21,12,38,15.30
2019,03,21,12,39,15.30
2019,03,21,12,40,15.30
2019,03,21,12,41,15.30
2019,03,21,12,42,15.30
2019,03,21,12,43,15.40
2019,03,21,12,44,15.40
2019,03,21,12,45,15.40
2019,03,21,12,46,15.50
2019,03,21,12,47,15.50
2019,03,21,12,48,15.60
2019,03,21,12,49,15.70
2019,03,21,12,50,15.70
2019,03,21,12,51,15.80
2019,03,21,12,52,15.80
2019,03,21,12,53,15.80
2019,03,21,12,54,15.80
2019,03,21,12,55,15.80
2019,03,21,12,56,15.80
2019,03,21,12,57,15.80
2019,03,21,12,58,15.80
2019,03,21,12,59,15.80
2019,03,21,13,00,15.80
2019,03,21,13,01,15.80
2019,03,21,13,02,15.70
2019,03,21,13,03,15.70
2019,03,21,13,04,15.70
2019,03,21,13,05,15.60
2019,03,21,13,06,15.60
2019,03,21,13,07,15.60
2019,03,21,13,08,15.60
2019,03,21,13,09,15.60
2019,03,21,13,10,15.60
2019,03,21,13,11,15.50
2019,03,21,13,12,15.60
2019,03,21,13,13,15.50
2019,03,21,13,14,15.60
2019,03,21,13,15,15.60
2019,03,21,13,16,15.60
2019,03,21,13,17,15.60
2019,03,21,13,18,15.60
2019,03,21,13,19,15.70
2019,03,21,13,20,15.70
2019,03,21,13,21,15.70
2019,03,21,13,22,15.60
2019,03,21,13,23,15.60
2019,03,21,13,24,15.50
2019,03,21,13,25,15.40
2019,03,21,13,26,15.40
2019,03,21,13,27,15.30
2019,03,21,13,28,15.30
2019,03,21,13,29,15.20
2019,03,21,13,30,15.20
2019,03,21,13,31,15.20
2019,03,21,13,32,15.20
2019,03,21,13,33,15.20
2019,03,21,13,34,15.20
2019,03,21,13,35,15.20
2019,03,21,13,36,15.10
2019,03,21,13,37,15.10
2019,03,21,13,38,15.10
2019,03,21,13,39,15.10
2019,03,21,13,40,15.10
2019,03,21,13,41,15.10
2019,03,21,13,42,15.10
2019,03,21,13,43,15.10
2019,03,21,13,44,15.20
2019,03,21,13,45,15.20
2019,03,21,13,46,15.30
2019,03,21,13,47,15.30
2019,03,21,13,48,15.30
2019,03,21,13,49,15.30
2019,03,21,13,50,15.30
2019,03,21,13,51,15.30
2019,03,21,13,52,15.30
2019,03,21,13,53,15.30
2019,03,21,13,54,15.30
2019,03,21,13,55,15.30
2019,03,21,13,56,15.20
2019,03,21,13,57,15.20
2019,03,21,13,58,15.10
2019,03,21,13,59,15.10
2019,03,21,14,00,15.00
2019,03,21,14,01,15.00
2019,03,21,14,02,15.00
2019,03,21,14,03,15.00
2019,03,21,14,04,15.10
2019,03,21,14,05,15.10
2019,03,21,14,06,15.10
2019,03,21,14,07,15.10
2019,03,21,14,08,15.10
2019,03,21,14,09,15.10
2019,03,21,14,10,15.10
2019,03,21,14,11,15.10
2019,03,21,14,12,15.10
2019,03,21,14,13,15.20
2019,03,21,14,14,15.30
2019,03,21,14,15,15.30
2019,03,21,14,16,15.40
2019,03,21,14,17,15.40
2019,03,21,14,18,15.50
2019,03,21,14,19,15.50
2019,03,21,14,20,15.50
2019,03,21,14,21,15.60
2019,03,21,14,22,15.70
2019,03,21,14,23,15.80
2019,03,21,14,24,15.80
2019,03,21,14,25,15.90
2019,03,21,14,26,16.00
2019,03,21,14,27,16.00
2019,03,21,14,28,16.00
2019,03,21,14,29,16.10
2019,03,21,14,30,16.10
2019,03,21,14,31,16.00
2019,03,21,14,32,16.00
2019,03,21,14,33,15.90
2019,03,21,14,34,15.90
2019,03,21,14,35,15.90
2019,03,21,14,36,15.90
2019,03,21,14,37,15.90
2019,03,21,14,38,15.90
2019,03,21,14,39,15.90
2019,03,21,14,40,15.80
2019,03,21,14,41,15.80
2019,03,21,14,42,15.80
2019,03,21,14,43,15.80
2019,03,21,14,44,15.80
2019,03,21,14,45,15.90
2019,03,21,14,46,15.90
2019,03,21,14,47,15.90
2019,03,21,14,48,16.00
2019,03,21,14,49,16.00
2019,03,21,14,50,15.90
2019,03,21,14,51,15.90
2019,03,21,14,52,15.90
2019,03,21,14,53,15.90
2019,03,21,14,54,16.00
2019,03,21,14,55,16.00
2019,03,21,14,56,16.10
2019,03,21,14,57,16.10
2019,03,21,14,58,16.10
2019,03,21,14,59,16.20
2019,03,21,15,00,16.20
2019,03,21,15,01,16.20
2019,03,21,15,02,16.20
2019,03,21,15,03,16.30
2019,03,21,15,04,16.30
2019,03,21,15,05,16.40
2019,03,21,15,06,16.40
2019,03,21,15,07,16.40
2019,03,21,15,08,16.30
2019,03,21,15,09,16.30
2019,03,21,15,10,16.30
2019,03,21,15,11,16.30
2019,03,21,15,12,16.30
2019,03,21,15,13,16.20
2019,03,21,15,14,16.20
2019,03,21,15,15,16.10
2019,03,21,15,16,16.10
2019,03,21,15,17,16.00
2019,03,21,15,18,16.00
2019,03,21,15,19,15.90
2019,03,21,15,20,15.90
2019,03,21,15,21,15.80
2019,03,21,15,22,15.70
2019,03,21,15,23,15.60
2019,03,21,15,24,15.60
2019,03,21,15,25,15.60
2019,03,21,15,26,15.50
2019,03,21,15,27,15.40
2019,03,21,15,28,15.40
2019,03,21,15,29,15.30
2019,03,21,15,30,15.20
2019,03,21,15,31,15.20
2019,03,21,15,32,15.10
2019,03,21,15,33,15.00
2019,03,21,15,34,15.00
2019,03,21,15,35,15.00
2019,03,21,15,36,14.90
2019,03,21,15,37,14.90
2019,03,21,15,38,14.80
2019,03,21,15,39,14.80
2019,03,21,15,40,14.80
2019,03,21,15,41,14.70
2019,03,21,15,42,14.60
2019,03,21,15,43,14.50
2019,03,21,15,44,14.40
2019,03,21,15,45,14.30
2019,03,21,15,46,14.20
2019,03,21,15,47,14.10
2019,03,21,15,48,14.10
2019,03,21,15,49,14.00
2019,03,21,15,50,14.00
2019,03,21,15,51,14.00
2019,03,21,15,52,14.00
2019,03,21,15,53,14.00
2019,03,21,15,54,14.00
2019,03,21,15,55,14.00
2019,03,21,15,56,14.00
2019,03,21,15,57,14.10
2019,03,21,15,58,14.10
2019,03,21,15,59,14.20
2019,03,21,16,00,14.20
2019,03,21,16,01,14.30
2019,03,21,16,02,14.30
2019,03,21,16,03,14.30
2019,03,21,16,04,14.40
2019,03,21,16,05,14.40
2019,03,21,16,06,14.50
2019,03,21,16,07,14.50
2019,03,21,16,08,14.60
2019,03,21,16,09,14.70
2019,03,21,16,10,14.70
2019,03,21,16,11,14.80
2019,03,21,16,12,14.80
2019,03,21,16,13,14.80
2019,03,21,16,14,14.80
2019,03,21,16,15,14.80
2019,03,21,16,16,14.90
2019,03,21,16,17,14.80
2019,03,21,16,18,14.80
2019,03,21,16,19,14.80
2019,03,21,16,20,14.80
2019,03,21,16,21,14.80
2019,03,21,16,22,14.80
2019,03,21,16,23,14.80
2019,03,21,16,24,14.80
2019,03,21,16,25,14.90
2019,03,21,16,26,14.90
2019,03,21,16,27,15.00
2019,03,21,16,28,15.00
2019,03,21,16,29,15.10
2019,03,21,16,30,15.10
2019,03,21,16,31,15.20
2019,03,21,16,32,15.20
2019,03,21,16,33,15.20
2019,03,21,16,34,15.20
2019,03,21,16,35,15.20
2019,03,21,16,36,15.20
2019,03,21,16,37,15.20
2019,03,21,16,38,15.20
2019,03,21,16,39,15.20
2019,03,21,16,40,15.20
2019,03,21,16,41,15.20
2019,03,21,16,42,15.30
2019,03,21,16,43,15.30
2019,03,21,16,44,15.30
2019,03,21,16,45,15.30
2019,03,21,16,46,15.30
2019,03,21,16,47,15.30
2019,03,21,16,48,15.40
2019,03,21,16,49,15.40
2019,03,21,16,50,15.40
2019,03,21,16,51,15.40
2019,03,21,16,52,15.40
2019,03,21,16,53,15.50
2019,03,21,16,54,15.50
2019,03,21,16,55,15.50
2019,03,21,16,56,15.50
2019,03,21,16,57,15.60
2019,03,21,16,58,15.60
2019,03,21,16,59,15.60
2019,03,21,17,00,15.60
2019,03,21,17,01,15.60
2019,03,21,17,02,15.50
2019,03,21,17,03,15.50
2019,03,21,17,04,15.50
2019,03,21,17,05,15.40
2019,03,21,17,06,15.50
2019,03,21,17,07,15.50
2019,03,21,17,08,15.50
2019,03,21,17,09,15.50
2019,03,21,17,10,15.40
2019,03,21,17,11,15.40
2019,03,21,17,12,15.40
2019,03,21,17,13,15.40
2019,03,21,17,14,15.40
2019,03,21,17,15,15.30
2019,03,21,17,16,15.30
2019,03,21,17,17,15.30
2019,03,21,17,18,15.30
2019,03,21,17,19,15.20
2019,03,21,17,20,15.20
2019,03,21,17,21,15.20
2019,03,21,17,22,15.20
2019,03,21,17,23,15.20
2019,03,21,17,24,15.20
2019,03,21,17,25,15.20
2019,03,21,17,26,15.20
2019,03,21,17,27,15.20
2019,03,21,17,28,15.20
2019,03,21,17,29,15.20
2019,03,21,17,30,15.10
2019,03,21,17,31,15.10
2019,03,21,17,32,15.10
2019,03,21,17,33,15.00
2019,03,21,17,34,15.00
2019,03,21,17,35,14.90
2019,03,21,17,36,14.90
2019,03,21,17,37,14.90